[[{"header":{"parameterUnit":"m.s-1","parameterCategory":1,"la1":30.2991,"la2":30.254,"lo1":-89.0895,"lo2":-89.0444,"dy":0.0017,"dx":0.0017,"nx":28,"ny":28,"refTime":"2024-09-27T21:00:00:Z","depth":0,"parameterNumber":2,"parameterNumberName":"U-component_of_WINDS"},"data":[0,0,0,0,0,0,0,0,0,0,0,0,0,0,0,0,0,0,0,0,0,0,0,0,0,0,0,0,0,0,0,0,0,0,0,0,0,0,0,0,0,0,0,0,0,0,0,0,0,0,0,0,0,0,0,0,0,0,3.1179,3.118,0,3.1225,3.1226,3.1226,3.1244,3.1243,3.1243,3.1243,3.1293,3.1294,3.1295,0,0,0,0,0,0,0,0,0,0,0,0,0,3.1109,3.111,3.1179,3.118,3.118,3.1225,3.1226,3.1227,3.1244,3.1243,3.1243,3.1243,3.1292,3.1294,3.1296,0,0,0,0,0,0,0,0,0,0,0,0,0,3.1146,3.1111,3.1179,3.1194,3.1196,3.1225,3.1226,3.1227,3.1244,3.1243,3.1243,3.1243,3.1291,3.1294,3.1296,3.1314,0,0,3.1302,3.1303,0,0,0,0,0,0,0,0,3.1144,3.1149,3.1191,3.1193,3.1195,3.1228,3.1219,3.1256,3.1244,3.1226,3.1243,3.1243,3.1272,3.1275,3.1285,3.1316,3.1318,3.1303,3.1304,3.1305,3.1305,0,0,0,0,0,0,0,3.1141,3.1147,3.1198,3.1192,3.1194,3.12,3.1205,3.1226,3.1249,3.1227,3.1229,3.1234,3.1273,3.1282,3.1286,3.1319,3.1303,3.1304,3.1306,3.1307,3.137,3.137,0,0,0,0,0,0,3.1136,3.1144,3.1196,3.1199,3.1168,3.1201,3.1207,3.1218,3.1249,3.1254,3.1234,3.1234,3.1279,3.1283,3.1288,3.1312,3.1305,3.1307,3.1308,3.1369,3.137,3.137,0,0,0,0,0,0,3.1134,3.114,3.1194,3.1172,3.1179,3.1203,3.1215,3.1219,3.1229,3.1254,3.1259,3.1239,3.1279,3.1285,3.1307,3.1313,3.1308,3.131,3.1369,3.1369,3.137,3.1359,0,0,0,0,0,0,3.1132,3.114,3.1146,3.1172,3.118,3.1212,3.1216,3.122,3.1232,3.1233,3.1261,3.1265,3.1279,3.1304,3.131,3.1316,3.1312,3.1368,3.1369,3.137,3.1359,3.1359,3.1359,0,0,0,0,0,3.113,3.1141,3.1146,3.1152,3.1188,3.1212,3.1217,3.1233,3.1233,3.124,3.1256,3.1264,3.1312,3.1306,3.1313,3.132,3.1368,3.1369,3.137,3.1359,3.1359,3.1359,0,0,0,0,0,0,3.1114,3.1144,3.115,3.117,3.1189,3.1215,3.1224,3.1232,3.1251,3.1251,3.1271,3.1277,3.1298,3.1312,3.1305,3.134,3.1341,3.1343,3.133,3.1331,3.1331,3.1327,3.1313,0,0,0,0,0,3.1113,3.1129,3.1155,3.117,3.1179,3.12,3.1211,3.1222,3.1242,3.125,3.1268,3.1288,3.1308,3.132,3.134,3.1362,3.1368,3.137,3.137,3.137,3.1372,3.1386,3.1387,3.1373,3.1373,3.1373,0,0,3.1111,3.113,3.1139,3.1168,3.1183,3.12,3.1206,3.1224,3.1237,3.1253,3.1275,3.1289,3.1313,3.1336,3.1347,3.1348,3.1377,3.1371,3.1371,3.1373,3.1387,3.1388,3.1389,3.1373,3.1373,3.1373,0,0,3.1116,3.1131,3.1146,3.1162,3.1185,3.12,3.1203,3.1229,3.1239,3.1262,3.1274,3.1291,3.1325,3.1341,3.1354,3.1368,3.1376,3.1374,3.1375,3.1388,3.1389,3.139,3.1396,3.1397,3.1376,3.1376,3.1376,0,3.1111,3.1136,3.1153,3.117,3.1183,3.1198,3.1214,3.1229,3.1257,3.1267,3.1268,3.1311,3.1328,3.1355,3.1359,3.1369,3.1374,3.1371,3.1388,3.1389,3.139,3.1396,3.1398,3.1376,3.1376,3.1376,3.1376,0,3.1129,3.1146,3.1156,3.1183,3.1197,3.1214,3.1234,3.1247,3.1257,3.1272,3.1296,3.1318,3.1342,3.135,3.136,3.1379,3.1379,3.1384,3.1384,3.1391,3.1396,3.1398,3.1375,3.1375,3.1375,3.1375,0,0,3.1123,3.1161,3.1164,3.1177,3.1205,3.122,3.1238,3.1262,3.1273,3.1293,3.131,3.1339,3.1344,3.1358,3.1371,3.1383,3.1393,3.1386,3.1387,3.1386,3.1417,3.1413,3.1415,3.14,3.14,3.14,3.1415,0,3.1132,3.1163,3.118,3.1205,3.1223,3.1239,3.1255,3.1274,3.1289,3.1307,3.1324,3.1345,3.1349,3.1358,3.1371,3.1389,3.14,3.1389,3.1416,3.1416,3.1408,3.1418,3.1413,3.1426,3.1417,3.1418,3.1418,0,3.1145,3.1165,3.1192,3.122,3.1227,3.1241,3.1265,3.1282,3.1306,3.1316,3.1333,3.1346,3.1368,3.1368,3.1398,3.139,3.1403,3.1414,3.1415,3.1417,3.1417,3.142,3.143,3.1432,3.1422,3.1421,3.1421,0,3.1139,3.1173,3.1193,3.1204,3.1237,3.1246,3.1261,3.1284,3.1298,3.132,3.1329,3.1353,3.1366,3.1386,3.1405,3.1404,3.1434,3.1436,3.1444,3.1443,3.1449,3.1448,3.146,3.1458,3.1458,3.1458,3.1458,0,3.1146,3.1162,3.1191,3.1203,3.1222,3.1243,3.1261,3.1277,3.1298,3.1315,3.1331,3.1347,3.1372,3.1391,3.1407,3.143,3.1436,3.1446,3.145,3.1444,3.1443,3.1452,3.1451,3.1458,3.1458,3.1458,3.1458,0,3.1141,3.1161,3.1185,3.1214,3.1222,3.1235,3.1261,3.1274,3.1291,3.1312,3.1319,3.1345,3.1369,3.1391,3.1423,3.1434,3.1457,3.1463,3.1449,3.1451,3.1458,3.1457,3.1476,3.148,3.1475,3.1475,3.1475,0,3.1144,3.1157,3.1188,3.12,3.1214,3.1234,3.1248,3.1269,3.1284,3.1313,3.1323,3.1349,3.137,3.1408,3.143,3.1456,3.1461,3.1466,3.1465,3.1459,3.1461,3.146,3.1462,3.1466,3.1466,3.1466,3.1466,0,3.1147,3.1157,3.1177,3.12,3.1217,3.1237,3.1257,3.1267,3.1292,3.1308,3.1333,3.1349,3.1382,3.1408,3.1436,3.1452,3.1463,3.1466,3.1469,3.1463,3.1455,3.1459,3.1448,3.1465,3.1465,3.1465,3.1465,3.1465,3.1147,3.1159,3.1183,3.1205,3.1223,3.1242,3.1256,3.1275,3.1296,3.1323,3.1336,3.1361,3.1386,3.1425,3.1441,3.1462,3.1465,3.1469,3.147,3.1471,3.147,3.1452,3.1468,3.1468,3.1468,3.1468,3.1468,0,3.1151,3.1167,3.1187,3.1215,3.1233,3.1243,3.1266,3.1281,3.1302,3.1325,3.1345,3.1374,3.14,3.1425,3.1452,3.1464,3.147,3.147,3.1469,3.1473,3.1466,3.1461,3.1465,3.1465,3.1465,3.1465,3.1465,3.1465,3.1155,3.1176,3.1189,3.1221,3.1238,3.1262,3.1274,3.1293,3.1311,3.1342,3.1363,3.1379,3.1404,3.1433,3.1457,3.1464,3.1473,3.1471,3.148,3.1473,3.1473,3.1473,3.1468,3.1473,3.1473,3.1485,3.1485,3.1485]},{"header":{"parameterUnit":"m.s-1","parameterCategory":1,"la1":30.2991,"la2":30.254,"lo1":-89.0895,"lo2":-89.0444,"dy":0.0017,"dx":0.0017,"nx":28,"ny":28,"refTime":"2024-09-27T21:00:00:Z","depth":0,"parameterNumber":3,"parameterNumberName":"V-component_of_WINDS"},"data":[0,0,0,0,0,0,0,0,0,0,0,0,0,0,0,0,0,0,0,0,0,0,0,0,0,0,0,0,0,0,0,0,0,0,0,0,0,0,0,0,0,0,0,0,0,0,0,0,0,0,0,0,0,0,0,0,0,0,2.1706,2.1707,0,2.1881,2.1883,2.1885,2.1965,2.1965,2.1965,2.1965,2.2145,2.2149,2.2154,0,0,0,0,0,0,0,0,0,0,0,0,0,2.144,2.1444,2.1705,2.1708,2.171,2.1881,2.1883,2.1885,2.1965,2.1965,2.1965,2.1965,2.2143,2.2149,2.2155,0,0,0,0,0,0,0,0,0,0,0,0,0,2.1579,2.1446,2.1705,2.177,2.1778,2.188,2.1883,2.1886,2.1965,2.1965,2.1965,2.1965,2.2141,2.2148,2.2155,2.2206,0,0,2.2178,2.2181,0,0,0,0,0,0,0,0,2.1571,2.1589,2.1758,2.1766,2.1775,2.1901,2.1855,2.1993,2.1965,2.1894,2.1965,2.1965,2.2064,2.2077,2.2111,2.2214,2.2222,2.2179,2.2183,2.2186,2.2188,0,0,0,0,0,0,0,2.1561,2.1582,2.1775,2.1761,2.1771,2.1791,2.181,2.1882,2.1978,2.19,2.1907,2.1926,2.2068,2.2104,2.2116,2.2225,2.2179,2.2185,2.219,2.2193,2.238,2.238,0,0,0,0,0,0,2.1541,2.1573,2.1769,2.178,2.167,2.1796,2.1818,2.1861,2.1978,2.1995,2.1926,2.1929,2.2091,2.2107,2.2122,2.219,2.2186,2.2193,2.2198,2.2379,2.238,2.238,0,0,0,0,0,0,2.1535,2.1558,2.1762,2.1679,2.1706,2.1801,2.1848,2.1864,2.19,2.1997,2.2015,2.1945,2.2091,2.2112,2.2185,2.2197,2.2197,2.2203,2.2379,2.2379,2.238,2.2325,0,0,0,0,0,0,2.1527,2.1555,2.1575,2.1678,2.171,2.1822,2.1849,2.1868,2.1912,2.1918,2.2019,2.2036,2.2093,2.2173,2.2192,2.2208,2.2209,2.2378,2.2379,2.238,2.2326,2.2324,2.2322,0,0,0,0,0,2.1517,2.1553,2.1576,2.1599,2.1737,2.1822,2.184,2.1905,2.1913,2.1934,2.1997,2.2033,2.2193,2.218,2.2202,2.222,2.2377,2.2379,2.238,2.2327,2.2324,2.2322,0,0,0,0,0,0,2.1449,2.1567,2.1594,2.1664,2.1732,2.1835,2.1864,2.19,2.1968,2.197,2.2048,2.207,2.2136,2.2185,2.2169,2.2275,2.2288,2.2294,2.2241,2.2239,2.2237,2.2224,2.2215,0,0,0,0,0,2.1441,2.15,2.1601,2.1653,2.1686,2.1769,2.1808,2.1852,2.1926,2.1955,2.2023,2.2094,2.216,2.2202,2.2269,2.2334,2.2357,2.2357,2.2354,2.2352,2.2356,2.2395,2.2396,2.2384,2.2384,2.2384,0,0,2.1427,2.15,2.1532,2.1641,2.1699,2.1758,2.1792,2.1854,2.1899,2.1965,2.2038,2.209,2.2174,2.2243,2.2277,2.2286,2.2365,2.2354,2.2351,2.2357,2.2396,2.2398,2.2398,2.2385,2.2385,2.2385,0,0,2.1432,2.1493,2.1543,2.16,2.1688,2.1743,2.1755,2.1853,2.189,2.1965,2.2016,2.207,2.2183,2.2241,2.2285,2.2312,2.2348,2.2331,2.232,2.2357,2.2358,2.2359,2.237,2.2372,2.2335,2.2335,2.2335,0,2.1404,2.1496,2.1564,2.1623,2.1669,2.1732,2.1783,2.1836,2.194,2.1971,2.198,2.2123,2.2183,2.2267,2.2274,2.2307,2.2324,2.232,2.2352,2.2354,2.2357,2.2367,2.2371,2.2332,2.2333,2.2333,2.2333,0,2.1457,2.1519,2.1549,2.1649,2.1699,2.1754,2.183,2.1873,2.1912,2.1966,2.2042,2.2117,2.22,2.2223,2.2262,2.2313,2.2316,2.2337,2.2352,2.2354,2.2366,2.237,2.2329,2.233,2.233,2.2331,0,0,2.1424,2.1561,2.157,2.1617,2.1718,2.1768,2.1826,2.1907,2.1942,2.2012,2.2063,2.2156,2.2177,2.2227,2.2273,2.2305,2.2323,2.2324,2.2327,2.2321,2.2385,2.2368,2.2372,2.2347,2.2348,2.2349,2.2378,0,2.1443,2.155,2.1613,2.1693,2.1752,2.1813,2.1863,2.193,2.1983,2.2041,2.2098,2.2164,2.2186,2.2216,2.2251,2.2313,2.2337,2.2312,2.2396,2.2398,2.2373,2.2378,2.2361,2.2384,2.2383,2.2383,2.2384,0,2.148,2.1549,2.1636,2.1731,2.1758,2.1802,2.1882,2.1936,2.2015,2.205,2.2106,2.2152,2.2216,2.2225,2.2314,2.2296,2.2334,2.237,2.2372,2.2383,2.2391,2.239,2.2394,2.2397,2.2392,2.2391,2.2391,0,2.1448,2.1563,2.163,2.1667,2.178,2.1809,2.1858,2.1935,2.198,2.205,2.208,2.2156,2.2198,2.2256,2.2322,2.2322,2.2405,2.2419,2.2437,2.2435,2.2452,2.245,2.2463,2.2475,2.2475,2.2474,2.2474,0,2.1464,2.1515,2.1617,2.1658,2.1717,2.1789,2.1845,2.1898,2.1967,2.2019,2.2076,2.2124,2.2208,2.2267,2.2319,2.2385,2.2403,2.2434,2.2448,2.243,2.2426,2.2456,2.2457,2.2475,2.2475,2.2475,2.2475,0,2.1439,2.1509,2.1586,2.1686,2.1712,2.1751,2.1837,2.188,2.1934,2.2001,2.202,2.2107,2.2179,2.225,2.2347,2.2382,2.2448,2.2465,2.2421,2.2429,2.2443,2.2441,2.2476,2.2485,2.2489,2.2489,2.2489,0,2.1444,2.1485,2.1589,2.1629,2.1676,2.1738,2.1785,2.1857,2.1903,2.1995,2.2026,2.2103,2.2168,2.228,2.2352,2.2426,2.2447,2.2454,2.2458,2.2439,2.2448,2.2445,2.245,2.2452,2.2451,2.2451,2.2451,0,2.1447,2.148,2.1545,2.1621,2.1675,2.1739,2.1805,2.1834,2.1919,2.1968,2.2042,2.2092,2.2192,2.2267,2.235,2.24,2.244,2.2449,2.2457,2.2439,2.2413,2.2428,2.2416,2.2448,2.2448,2.2448,2.2448,2.2448,2.1439,2.1477,2.1557,2.1627,2.1685,2.1745,2.179,2.185,2.1914,2.2,2.2039,2.2114,2.2192,2.2308,2.2357,2.2417,2.2427,2.2439,2.2442,2.2444,2.244,2.2402,2.2432,2.2433,2.2433,2.2433,2.2433,0,2.1445,2.1499,2.1563,2.1654,2.1709,2.1741,2.1816,2.186,2.1925,2.1994,2.2057,2.2143,2.2216,2.2293,2.2371,2.2405,2.2425,2.2423,2.2422,2.2433,2.2426,2.2412,2.2405,2.2405,2.2405,2.2405,2.2405,2.2405,2.1455,2.1523,2.1565,2.1662,2.1716,2.179,2.183,2.1887,2.1942,2.2035,2.2097,2.2146,2.2219,2.2303,2.2372,2.2393,2.2419,2.2412,2.2438,2.2431,2.2433,2.2435,2.2422,2.2417,2.2417,2.244,2.244,2.244]}]]